GFSNW_sfc_rhum_234.txt.gz
RH
78 78 77 77 74 72 56 58 97 58 63 79 99 99 66 63 44 42 48 46 43 44 45 48 42 50 40 43 40 56 58 62 52 34 30 31 52 83 89 97 100 100 86 56
79 78 79 77 76 64 50 81 76 54 64 100 100 84 87 58 47 45 48 48 46 45 50 72 49 45 40 45 49 78 54 79 68 49 57 46 73 87 66 77 96 97 98 73
79 76 78 78 80 70 48 79 100 85 77 63 60 65 78 85 49 50 49 48 46 47 55 47 60 49 42 42 45 62 61 59 57 59 49 38 47 42 46 80 89 73 82 55
77 78 77 78 82 71 48 96 89 67 98 95 59 58 58 62 56 49 46 47 47 54 74 69 61 43 40 38 46 48 64 80 47 44 38 35 37 36 35 42 54 73 44 35
79 77 79 78 83 73 58 97 91 63 53 59 59 68 82 55 49 54 51 56 48 51 63 54 70 52 48 50 40 54 70 73 57 78 37 34 37 32 29 28 30 35 35 36
80 78 78 79 84 71 80 70 58 65 66 59 64 60 53 55 55 50 48 52 59 60 49 44 46 48 50 51 56 56 82 80 79 73 37 43 69 37 27 25 21 23 34 27
79 81 80 80 84 73 57 61 59 88 83 62 58 50 48 49 47 60 48 49 59 46 38 47 46 40 39 44 47 47 78 82 82 81 63 84 37 25 25 28 22 17 16 15
78 79 82 81 80 79 80 78 83 90 91 52 53 52 52 48 47 51 51 45 40 43 59 77 76 69 79 82 66 53 55 71 92 87 68 47 32 25 26 29 27 19 21 19
74 78 79 81 80 82 81 86 90 97 100 70 45 54 48 62 63 63 52 47 49 56 64 75 72 59 54 50 47 51 51 70 84 82 84 71 28 22 21 24 47 23 22 23
68 74 77 78 80 82 86 76 81 90 100 66 56 68 66 48 55 68 53 55 59 56 84 81 74 62 35 43 35 61 81 89 91 77 82 49 26 24 22 55 42 25 28 30
65 61 68 72 74 75 86 81 84 92 100 72 58 54 60 55 62 78 54 64 66 79 85 79 70 76 50 48 33 37 44 77 81 80 82 73 27 26 40 34 31 34 34 37
69 63 66 63 67 68 77 86 69 89 98 89 73 71 64 58 49 54 62 67 52 60 82 77 78 71 69 57 66 31 49 40 64 55 52 31 30 34 33 35 40 41 43 41
72 72 70 68 66 61 60 62 57 69 91 79 58 55 44 48 56 53 89 66 55 64 53 90 78 79 46 58 42 38 33 29 49 51 43 37 35 33 34 32 38 38 37 38
71 71 70 70 70 70 68 67 56 74 77 94 66 41 46 40 43 52 60 63 55 76 73 97 87 80 52 58 50 54 41 41 50 54 44 39 37 36 38 38 38 39 38 40
72 72 71 71 71 71 79 87 67 56 70 84 80 50 40 39 45 50 53 64 73 90 98 95 83 64 77 71 62 65 40 45 57 64 41 46 47 42 39 45 45 46 51 53
68 68 66 66 70 72 87 100 75 79 80 99 85 58 56 44 52 52 57 65 76 89 96 85 68 50 75 90 59 36 31 31 34 42 37 39 40 40 41 52 58 58 58 57
67 65 63 60 59 74 81 68 74 80 94 99 85 76 52 55 65 70 68 65 93 91 96 94 72 63 91 89 72 43 34 34 36 36 41 50 46 60 58 61 56 59 59 58
66 65 65 64 64 65 74 54 81 92 99 92 88 72 69 58 89 92 81 93 92 95 85 79 79 72 88 89 45 38 34 37 41 42 48 67 68 56 52 56 59 65 66 71
66 64 66 76 82 89 57 58 79 87 92 88 74 63 78 62 80 86 97 94 96 70 94 81 75 75 85 53 42 39 40 48 52 58 56 50 60 64 62 63 62 72 86 92
68 71 90 95 79 68 83 87 98 96 88 98 80 45 62 58 72 73 82 83 79 88 66 64 88 58 40 34 35 36 44 60 65 76 70 78 77 71 75 72 78 88 95 96
74 84 85 65 81 76 77 95 84 74 82 69 70 61 64 50 70 69 60 75 68 78 66 69 62 53 51 44 50 55 60 63 66 66 73 66 68 76 82 81 86 96 99 99
65 70 66 65 83 92 91 79 68 74 59 58 70 69 62 60 54 70 65 70 63 72 73 86 65 69 46 47 56 59 66 65 63 69 68 70 72 78 87 87 90 99 98 100
68 68 69 77 77 92 80 80 67 70 62 69 70 87 74 67 60 79 81 92 76 55 86 64 54 46 42 48 63 70 68 69 70 72 69 77 78 82 91 95 99 100 100 100
68 69 85 75 84 65 55 53 57 72 69 72 75 79 89 90 96 82 99 77 78 81 77 67 58 42 53 62 68 67 67 75 72 76 87 96 99 99 100 100 100 100 100 100
68 62 76 66 50 56 67 66 63 60 54 57 69 68 76 76 92 74 69 83 77 58 66 66 78 56 57 61 66 72 72 93 88 82 94 100 100 100 100 100 100 100 100 100
72 59 66 62 74 80 88 78 68 49 51 48 51 59 79 78 64 74 74 60 56 67 75 70 63 59 61 66 71 74 74 72 84 87 83 86 100 100 100 100 100 100 100 100
67 80 80 74 74 88 86 65 47 54 50 61 50 79 66 67 74 59 49 60 77 78 73 64 56 56 58 67 77 83 76 81 86 87 79 81 86 100 99 100 100 100 100 100

GFSNW_sfc_rhum_237.txt.gz
RH
77 76 75 75 73 72 73 42 96 46 46 72 91 98 50 56 32 30 34 34 30 32 33 39 35 38 34 34 32 45 46 54 54 35 32 25 49 90 87 99 99 91 87 55
77 76 77 76 76 69 38 68 63 42 51 100 100 78 76 43 36 31 34 34 30 31 37 61 42 33 32 36 36 63 46 77 65 40 39 34 55 63 67 82 96 94 99 69
77 75 76 76 78 70 50 66 100 85 66 44 47 55 66 76 35 35 33 35 32 37 48 36 50 35 30 29 31 58 54 56 52 57 55 40 38 29 41 68 81 62 69 51
76 76 75 76 80 73 53 92 87 53 97 91 48 43 46 45 44 36 33 36 35 38 70 66 50 34 31 28 47 38 57 71 40 32 28 27 27 27 26 31 37 58 41 33
78 74 75 78 82 76 52 96 86 42 40 41 47 58 74 45 34 38 46 43 37 40 52 42 72 42 38 43 32 38 49 79 52 73 32 25 26 23 22 22 23 23 22 24
80 78 74 78 84 78 75 53 40 46 56 44 48 54 46 44 40 41 34 37 47 49 41 42 36 37 39 40 44 47 66 75 75 74 33 36 58 35 22 21 17 18 23 18
79 79 78 79 84 83 64 45 38 75 85 47 50 38 36 38 36 47 36 35 41 33 34 37 36 36 34 33 33 32 51 58 80 81 56 79 34 19 20 23 20 16 15 12
79 80 81 79 80 83 68 62 54 82 93 45 42 41 41 38 36 40 38 34 32 34 39 71 81 82 92 93 46 36 35 52 91 83 64 43 28 21 22 25 24 18 18 15
78 80 81 81 79 82 66 67 70 76 99 68 36 43 38 49 52 53 43 35 36 42 58 70 80 65 53 51 40 30 32 46 76 78 94 71 27 19 18 21 43 20 19 20
74 77 78 81 81 79 66 74 70 85 100 54 47 55 56 39 42 56 47 48 53 47 90 90 84 68 34 41 34 54 69 89 87 75 77 49 24 20 19 50 43 32 30 31
70 66 75 79 78 80 73 59 70 79 97 67 52 44 49 42 44 70 49 60 60 74 91 78 69 72 50 42 33 34 39 54 66 87 86 69 27 27 48 40 34 31 32 34
72 66 67 71 73 74 74 65 52 64 94 76 53 54 48 43 38 44 53 58 47 57 79 76 76 70 72 56 69 30 43 36 60 52 57 34 26 26 26 29 35 36 39 36
73 71 65 67 65 67 68 53 53 67 95 77 57 53 43 41 45 43 83 62 50 54 47 82 76 76 43 54 40 36 30 26 43 46 35 28 27 27 27 28 36 36 35 36
73 71 71 70 68 66 62 53 50 57 66 94 64 34 39 32 36 43 50 53 49 53 60 94 93 80 47 56 47 49 40 40 48 50 38 32 32 33 34 32 33 36 37 40
72 72 72 72 71 70 65 68 54 48 62 84 79 46 38 34 37 40 44 52 59 75 98 97 85 54 66 62 54 56 36 44 58 60 37 40 39 33 31 34 36 41 51 54
74 72 72 72 72 72 88 100 81 63 63 95 88 53 46 39 39 43 47 49 62 87 92 82 61 48 67 94 56 34 28 28 32 37 31 31 32 30 33 45 47 44 46 46
74 73 72 72 74 67 80 74 83 70 87 99 83 69 46 46 56 62 68 60 96 89 96 93 65 53 84 88 69 39 31 30 31 31 35 49 44 50 42 42 39 45 47 49
68 66 66 64 62 59 60 68 81 92 98 90 83 65 61 46 89 93 73 91 92 95 90 75 74 64 76 86 42 33 29 32 33 32 34 41 41 36 37 42 44 52 56 58
67 66 67 66 74 87 56 59 85 72 95 88 64 59 78 52 64 74 87 84 96 60 92 74 72 75 85 50 38 34 33 31 33 37 39 38 44 52 50 53 58 64 68 71
68 67 75 100 70 68 59 65 96 95 87 96 81 40 52 48 71 84 84 85 77 89 74 58 93 60 38 31 28 29 31 36 42 52 53 61 64 62 64 71 68 70 76 89
70 82 88 68 71 65 76 90 79 67 75 58 59 55 55 38 64 71 56 75 62 74 52 64 58 48 43 30 30 32 38 43 47 46 54 61 63 68 72 75 74 77 82 98
62 62 58 68 72 77 81 72 55 64 50 44 61 67 51 51 48 65 58 64 54 64 62 76 56 59 30 30 33 38 45 47 49 48 57 60 63 69 78 80 83 90 98 99
55 59 61 64 65 90 70 75 58 63 46 52 58 75 65 63 55 72 66 86 67 46 82 57 43 44 34 34 42 46 49 52 57 52 56 63 69 79 89 92 95 100 99 100
57 65 86 68 78 56 44 42 45 61 57 56 58 78 78 77 89 70 92 60 60 72 67 50 63 51 48 47 48 49 53 58 65 66 68 90 97 100 100 100 100 100 100 100
59 49 68 59 43 45 52 49 60 59 56 53 64 63 67 71 84 65 61 84 78 50 52 68 67 50 48 50 51 53 64 84 73 74 80 100 100 100 100 100 100 100 100 100
69 46 54 51 59 78 79 74 66 51 54 52 50 53 67 69 49 51 60 42 41 47 83 72 60 52 52 52 58 64 68 70 69 70 76 83 100 100 100 100 100 100 100 100
56 71 73 67 65 93 80 60 52 43 52 60 47 75 58 46 56 45 39 57 82 90 76 62 49 49 49 48 54 65 69 66 73 70 74 76 74 74 76 87 100 100 100 100

GFSNW_sfc_rhum_240.txt.gz
RH
75 74 74 72 72 71 71 50 96 50 45 83 88 98 43 52 25 24 28 28 29 29 30 37 32 34 44 30 27 45 38 51 64 36 31 42 62 66 65 96 97 96 98 63
76 76 75 75 76 72 52 62 63 46 49 100 100 67 53 37 31 27 28 32 28 27 37 51 44 30 36 28 29 51 44 67 70 46 43 40 49 60 60 70 91 76 91 68
74 76 74 75 77 73 56 71 100 90 71 50 50 55 56 69 32 31 27 30 29 33 49 36 47 34 29 28 28 41 49 55 51 65 63 44 38 28 58 67 77 64 72 60
75 74 74 76 79 74 60 91 86 58 98 92 53 40 43 44 41 31 29 34 33 35 72 64 57 38 40 29 38 37 62 67 48 40 36 32 28 24 22 29 43 60 49 42
78 75 75 78 81 76 60 96 86 44 38 38 43 50 71 41 34 31 40 40 34 38 52 44 62 46 41 42 34 42 45 69 56 74 35 28 26 24 23 23 23 23 21 22
80 77 75 78 83 80 59 58 36 47 60 47 49 56 48 45 35 37 32 32 39 43 38 34 35 34 36 36 41 45 60 72 71 77 39 43 59 34 25 21 17 18 24 18
80 79 78 78 83 84 70 45 40 80 83 52 49 37 32 33 32 43 33 32 38 31 30 30 32 36 36 35 35 31 51 56 66 81 61 78 39 22 18 20 18 17 17 16
79 82 84 79 80 84 64 52 51 75 92 52 42 36 37 34 34 37 37 33 30 33 38 65 77 78 93 82 45 33 34 50 75 82 66 45 29 28 30 24 24 36 27 21
81 84 86 83 79 81 68 71 67 71 99 70 38 40 36 47 54 54 41 32 34 38 60 75 73 68 61 51 44 22 26 35 75 86 91 80 34 25 20 22 42 39 37 36
79 81 84 83 81 79 65 68 68 78 100 57 49 55 54 38 41 53 44 43 57 44 82 90 80 72 42 48 37 46 62 76 81 76 75 49 24 28 26 48 54 36 30 34
76 83 81 82 82 81 70 68 66 81 96 68 53 46 48 42 43 72 52 62 62 76 83 76 70 71 55 47 37 38 45 65 72 68 78 83 36 34 46 41 36 32 37 38
78 77 76 78 81 80 76 62 56 66 95 76 52 50 45 43 41 48 49 54 54 55 77 75 80 75 72 59 70 32 49 43 64 60 59 40 31 31 28 31 35 36 43 42
80 74 71 77 76 76 69 55 52 60 93 77 62 59 46 43 47 46 82 56 46 51 47 79 75 74 48 58 44 39 33 29 51 54 43 36 33 28 26 26 35 35 33 34
80 76 72 68 67 71 72 61 56 61 66 92 65 33 39 32 39 43 49 53 54 58 71 95 88 80 53 64 52 54 44 41 49 51 41 36 35 34 35 31 31 30 30 36
79 75 70 69 68 65 61 58 48 52 60 87 84 50 38 36 36 38 41 55 60 76 96 96 84 60 72 70 63 65 41 46 64 73 45 49 44 42 32 33 36 42 45 46
78 75 71 71 70 69 87 99 63 60 51 92 86 60 49 38 38 40 43 48 58 80 93 81 62 50 66 87 61 37 30 29 33 38 32 47 48 35 35 44 41 37 41 42
79 77 76 74 76 79 93 77 88 68 82 92 82 73 48 42 59 71 68 52 84 88 94 92 69 59 74 84 75 45 34 32 33 32 60 69 38 40 32 35 40 44 43 47
77 77 76 77 77 76 96 69 77 74 93 85 83 67 63 48 90 94 78 93 90 92 85 74 75 64 75 84 45 36 32 48 50 37 30 33 32 34 42 42 46 56 61 61
77 74 70 70 71 91 59 76 83 64 78 85 66 62 80 53 79 80 86 85 95 59 91 77 70 74 84 55 42 38 34 43 32 32 36 34 45 50 52 58 62 68 71 75
72 70 66 99 71 71 69 74 95 89 85 85 82 49 56 54 71 79 87 87 78 87 76 61 91 67 42 36 32 32 40 31 35 46 51 51 59 62 64 68 70 75 79 86
72 86 95 68 70 61 74 83 81 70 77 64 63 61 58 41 69 71 75 84 66 79 58 70 69 54 49 33 35 55 35 35 38 40 46 50 60 69 77 80 80 82 87 96
65 67 67 61 68 75 78 80 61 61 54 44 58 60 54 49 43 59 58 59 51 57 58 76 60 71 34 47 36 35 40 44 48 47 48 51 61 76 82 86 88 91 97 98
62 51 62 71 69 91 72 82 57 69 48 50 53 76 56 58 51 66 63 76 63 39 78 58 47 45 48 44 40 43 42 45 55 55 55 60 69 78 87 94 96 99 98 99
55 63 78 71 80 59 50 47 51 54 56 57 61 77 72 72 79 69 83 59 53 68 66 52 71 60 71 74 50 44 50 57 62 64 70 94 97 100 100 100 100 99 99 99
71 62 82 69 48 48 53 56 62 61 70 71 75 81 70 78 81 68 60 67 71 52 56 80 81 65 51 52 52 54 68 90 81 71 82 100 100 100 100 100 100 100 100 100
91 61 63 51 61 83 85 75 68 54 56 55 67 78 92 94 79 67 68 51 43 64 95 94 66 53 52 49 51 55 67 66 70 74 76 79 98 100 99 100 100 100 100 100
78 75 78 64 66 92 88 65 61 45 56 66 53 70 61 46 47 40 37 63 88 98 96 75 62 60 60 56 56 63 56 58 70 74 77 75 80 87 86 88 100 100 100 100

GFSNW_sfc_rhum_243.txt.gz
RH
78 76 77 76 76 78 82 90 98 77 66 96 100 100 63 48 31 32 36 38 39 41 45 57 54 54 45 43 40 62 54 67 79 92 52 48 72 98 86 98 97 98 99 99
77 79 78 79 80 78 91 94 91 69 70 97 99 84 62 49 38 36 39 42 39 38 55 69 50 47 40 45 54 66 62 83 88 69 54 37 48 70 74 86 94 98 99 97
78 79 80 81 82 77 86 97 94 96 97 91 84 81 78 75 47 39 33 37 38 47 58 54 64 56 43 50 49 56 67 75 74 87 72 51 51 36 47 79 94 81 82 65
80 80 81 80 82 80 87 99 96 81 98 97 86 72 64 59 57 41 40 45 45 51 77 76 74 54 50 44 44 48 70 94 71 62 52 46 42 35 30 38 64 82 56 36
80 81 81 82 84 79 93 98 99 82 65 66 73 70 81 59 46 49 51 56 49 50 63 57 74 62 59 60 48 59 62 83 72 86 49 47 54 45 36 31 28 30 28 29
78 81 82 84 86 85 94 93 73 76 82 76 78 79 68 60 54 51 41 45 57 58 55 52 48 50 55 55 60 62 75 85 86 90 58 63 74 51 38 32 27 27 35 28
77 82 83 84 86 88 95 86 76 92 95 84 82 51 48 47 45 60 47 47 53 50 42 47 50 53 51 55 53 52 64 68 87 88 78 97 56 31 30 34 40 43 44 42
79 84 84 84 86 87 96 93 83 96 97 79 69 59 52 47 48 52 48 46 44 47 52 84 87 83 85 81 68 53 49 68 86 91 95 67 47 38 37 43 54 46 52 46
79 84 86 86 85 85 95 94 82 93 98 90 54 62 54 75 81 77 60 50 51 50 94 93 93 91 79 78 67 43 44 62 88 92 98 94 60 47 42 44 73 35 34 42
76 83 86 86 85 82 93 92 85 90 98 90 69 79 78 61 70 86 65 64 74 62 95 96 97 92 60 76 59 65 80 88 87 97 96 75 41 40 36 81 72 37 44 46
76 81 86 85 85 84 92 90 86 92 100 92 71 68 80 71 69 91 74 81 80 94 93 96 92 93 83 75 55 61 64 84 94 92 92 88 47 44 63 52 42 45 44 55
77 80 84 85 85 85 85 93 86 87 97 94 80 74 71 70 65 78 77 79 67 84 95 96 96 95 93 84 93 49 72 59 83 77 84 52 43 50 42 43 41 39 54 53
79 78 83 82 82 80 79 82 81 88 99 93 86 74 58 52 59 64 93 86 63 71 65 97 97 90 79 91 78 64 55 49 76 70 58 48 44 41 44 45 48 44 41 44
79 78 81 80 79 77 76 84 78 88 89 97 87 50 66 52 54 59 70 73 71 75 94 99 99 96 74 91 80 80 68 60 66 66 54 52 49 48 48 47 47 52 52 53
79 78 76 74 75 76 80 84 76 72 82 98 96 65 50 45 54 62 63 73 77 91 97 100 98 86 86 95 89 85 64 63 83 78 56 61 65 68 58 55 58 58 59 57
79 78 74 72 70 69 91 99 86 76 71 96 98 82 65 57 56 55 59 71 84 92 96 97 90 65 80 96 95 54 46 48 51 57 49 65 59 57 58 57 58 61 64 63
80 79 77 76 74 84 96 92 88 71 87 98 98 96 71 58 78 85 88 72 96 97 99 98 94 82 94 99 91 52 50 48 46 43 66 74 67 64 57 58 61 64 64 65
80 80 78 77 76 82 95 86 79 82 96 98 98 92 87 74 97 98 90 98 98 98 97 95 96 89 96 94 59 50 45 45 49 55 51 53 58 59 61 61 61 67 75 73
79 79 77 88 96 100 98 77 79 87 94 98 96 91 95 78 97 98 98 97 99 90 99 97 92 94 94 73 60 53 47 68 61 49 52 54 64 67 70 67 69 77 81 79
79 94 99 99 93 71 79 95 98 98 98 100 99 78 90 83 97 99 98 99 98 99 94 89 97 91 60 49 47 45 62 66 67 66 71 71 74 79 84 84 82 80 85 91
91 98 98 79 74 79 90 96 97 96 96 94 93 76 86 69 93 97 98 98 94 96 91 91 97 94 70 49 47 41 53 60 58 60 63 66 76 89 92 88 84 86 89 93
79 91 77 81 87 94 93 93 81 85 70 73 84 83 69 74 68 88 88 84 82 77 89 97 96 83 66 77 80 69 61 62 65 65 72 73 83 89 85 88 90 96 94 98
66 74 80 86 88 97 89 97 86 88 72 75 75 89 80 86 79 92 90 88 88 68 90 88 84 88 81 83 71 61 69 74 74 71 74 80 84 78 80 87 94 99 97 98
80 78 95 91 95 83 74 70 72 73 75 70 74 92 90 94 94 93 90 83 76 88 89 79 99 91 90 88 84 76 77 78 79 82 82 93 97 98 95 95 98 100 98 98
76 69 83 81 73 75 82 79 79 82 87 77 84 89 90 96 91 89 81 85 87 77 91 99 100 92 76 72 70 78 82 88 85 83 86 99 98 99 99 94 98 100 98 98
90 73 85 85 86 95 96 94 91 84 99 98 99 99 97 97 93 90 86 72 76 96 99 99 84 78 76 72 71 73 75 80 83 83 85 87 90 89 88 92 99 100 100 99
87 94 94 94 93 95 96 84 80 68 80 98 98 97 82 87 89 84 84 95 96 99 100 95 79 75 73 69 67 68 68 74 76 78 83 84 83 83 90 94 92 100 100 100

GFSNW_sfc_rhum_246.txt.gz
RH
78 80 80 83 81 80 83 94 93 79 79 95 99 97 74 50 41 40 41 46 47 50 52 65 58 57 53 54 54 63 65 75 87 86 55 45 69 88 89 97 95 98 98 99
81 83 83 84 83 82 97 97 94 83 78 97 99 92 71 54 47 45 48 46 45 46 54 71 60 57 52 56 59 71 69 87 88 65 57 44 58 55 80 89 95 96 95 95
76 82 84 85 85 83 89 98 96 92 97 92 85 85 79 75 53 49 42 42 45 54 60 58 65 63 53 55 52 51 65 77 79 94 80 63 63 52 47 84 95 84 84 65
78 83 84 85 86 85 92 98 93 78 88 81 89 76 70 62 59 54 42 50 50 57 76 79 72 62 59 52 47 57 68 86 74 65 58 56 53 48 43 50 63 82 54 38
79 83 84 85 86 83 94 98 98 93 81 74 83 77 78 66 57 51 54 57 54 55 62 60 81 64 63 64 58 63 68 82 74 90 58 52 56 52 48 42 35 36 36 55
77 82 84 85 87 76 96 96 86 82 82 80 85 82 68 63 62 56 45 47 61 61 57 55 51 50 56 58 65 67 76 87 88 90 64 65 61 53 45 48 54 50 68 54
76 82 85 85 87 85 96 97 85 91 88 86 84 62 59 65 63 61 51 47 52 48 48 51 58 62 63 65 67 59 68 70 88 89 75 72 48 38 44 54 48 43 40 43
77 84 86 86 87 88 98 97 89 96 96 87 77 68 67 58 52 52 46 46 44 49 60 84 84 82 71 69 67 62 66 75 84 88 96 67 55 64 62 65 55 41 43 45
78 84 85 86 86 87 97 97 95 95 95 87 65 70 63 77 81 77 62 58 55 63 93 92 98 93 80 81 65 53 59 67 86 95 97 94 65 49 40 47 81 42 43 50
78 82 85 86 86 87 96 96 91 94 97 89 71 81 78 66 78 88 72 67 75 69 97 99 98 95 67 83 62 66 84 89 87 100 96 79 55 46 45 80 74 44 46 50
81 77 83 85 86 86 95 95 93 90 99 92 75 75 83 79 80 89 76 77 81 95 94 97 96 97 85 84 63 64 69 87 95 95 99 90 52 47 60 60 55 51 46 47
81 78 83 85 86 85 84 94 91 94 96 88 84 78 71 67 68 82 84 79 78 85 95 98 97 96 94 85 93 58 70 66 86 78 81 60 56 55 52 56 55 54 51 52
81 78 80 83 84 84 82 89 96 93 99 89 86 79 63 66 70 69 91 93 71 81 83 98 98 94 86 91 83 71 60 59 78 69 60 58 52 47 51 52 59 60 61 61
82 79 81 83 82 82 77 84 88 87 90 96 85 58 73 60 64 73 72 72 77 84 92 99 100 97 78 90 75 86 76 67 70 74 60 55 58 56 60 66 63 59 62 64
82 79 80 83 80 81 83 82 80 76 81 96 96 76 58 49 57 72 74 77 82 93 98 98 99 94 90 97 92 82 68 69 88 84 59 67 67 64 68 72 70 73 74 74
81 80 78 80 81 80 91 99 82 72 74 94 97 84 70 62 59 74 79 81 88 94 96 98 94 74 84 96 98 71 62 62 59 63 54 59 69 70 63 71 74 74 75 74
81 79 80 79 81 76 91 88 83 69 90 97 99 96 78 64 79 90 88 82 97 96 100 99 96 85 90 100 92 59 53 59 55 52 60 74 65 70 68 70 69 70 74 76
81 80 80 80 75 77 93 88 83 81 96 97 99 94 90 74 99 97 94 98 98 98 98 98 97 94 97 97 68 58 50 50 54 56 60 67 64 71 73 72 74 82 84 75
81 80 78 86 96 99 97 81 81 90 90 98 98 94 94 83 98 98 97 98 99 92 99 98 94 95 96 74 65 61 59 62 72 55 59 64 70 74 80 85 89 93 80 80
80 91 99 99 97 83 80 95 99 99 98 99 99 85 91 89 98 99 98 99 98 99 96 94 97 90 60 54 56 57 58 57 67 73 72 79 78 85 92 95 92 82 84 88
97 99 99 92 80 90 91 98 93 98 98 98 96 85 87 84 95 98 97 98 97 99 93 92 97 94 84 64 56 49 63 69 66 62 68 74 86 93 95 80 79 78 91 91
85 92 92 89 88 95 93 94 91 96 81 85 93 90 76 76 88 96 99 95 97 94 92 98 97 93 86 86 73 58 66 70 75 77 82 88 90 88 85 81 83 85 94 96
62 80 92 85 92 99 92 96 89 94 84 82 84 92 82 82 82 92 90 88 90 85 98 92 91 95 92 90 87 87 84 78 76 76 78 85 89 89 90 88 88 92 96 96
78 82 99 92 100 87 83 72 78 77 80 74 73 91 90 98 97 93 86 85 84 92 94 86 99 98 96 90 87 90 85 83 82 82 85 97 99 99 98 94 94 95 98 98
80 77 90 94 82 85 86 77 85 88 82 76 84 94 90 92 87 89 86 92 92 84 91 98 99 97 82 83 77 80 82 89 85 85 87 99 98 98 94 89 92 96 99 99
85 74 87 90 90 97 96 96 98 98 86 90 96 95 96 94 92 97 91 83 82 96 99 99 92 90 89 80 72 69 74 80 78 79 84 88 93 92 89 91 92 100 100 99
86 96 98 96 92 94 96 83 87 96 93 99 99 97 88 96 97 94 91 95 98 98 98 95 79 73 72 72 72 73 74 70 73 76 78 79 83 88 91 91 87 95 99 100

GFSNW_sfc_rhum_252.txt.gz
RH
77 76 80 81 83 84 80 96 96 89 91 97 98 97 81 64 47 46 46 46 49 50 50 62 65 57 56 58 59 73 71 85 94 83 59 46 66 80 74 97 97 97 97 96
77 76 81 83 85 82 96 97 95 87 83 96 100 94 85 61 48 46 48 54 48 49 51 70 63 60 59 59 62 70 68 87 90 63 53 51 69 69 64 84 95 97 94 90
79 76 81 82 85 84 90 98 98 95 96 93 84 80 79 71 56 49 46 43 46 55 59 62 67 63 59 59 59 48 56 76 75 89 74 69 65 56 58 78 93 87 88 81
80 77 80 81 84 85 88 99 95 89 97 98 87 76 71 65 68 58 52 55 50 53 76 78 70 65 62 57 53 60 66 79 73 69 63 62 64 60 65 58 58 76 69 71
82 78 78 81 83 85 90 99 97 94 78 86 81 84 87 70 62 64 59 57 54 59 63 56 72 61 62 62 63 63 71 80 71 84 58 62 60 65 60 66 63 64 63 62
81 80 79 80 82 85 96 96 93 86 85 87 86 91 83 73 62 60 52 55 64 61 55 52 53 58 58 60 62 65 80 86 86 82 59 59 74 56 62 54 53 59 62 60
80 79 79 80 82 81 84 93 88 94 94 89 85 73 69 72 70 60 60 59 57 51 50 53 58 57 60 70 72 62 76 76 86 88 67 63 54 49 52 52 52 50 48 50
80 80 79 78 80 82 94 99 85 94 93 84 79 73 73 67 68 64 58 53 48 56 57 81 77 79 72 69 64 79 65 80 89 90 97 60 72 61 65 66 62 52 55 52
81 81 80 78 80 82 83 98 94 91 94 87 65 78 71 82 86 77 65 63 66 67 89 86 82 75 74 81 72 74 69 70 85 95 89 93 49 54 51 59 85 57 56 58
82 81 80 78 80 83 83 98 87 92 94 80 74 82 81 70 75 88 73 69 72 68 96 97 95 91 70 84 67 87 92 95 90 99 92 73 56 51 51 76 66 55 57 62
85 82 81 78 80 83 86 86 88 90 97 85 79 69 73 76 78 88 77 78 84 94 90 92 94 97 88 85 65 63 71 87 97 95 99 92 54 50 55 54 55 59 63 65
89 82 81 76 81 82 80 93 94 88 93 84 90 83 78 68 62 81 86 75 78 84 94 98 97 98 97 86 94 64 79 68 84 77 78 56 60 52 49 56 63 66 68 74
91 82 79 74 80 82 79 93 99 91 98 91 92 87 76 71 66 65 89 90 77 77 78 96 97 90 84 93 86 67 60 63 78 67 60 62 57 54 55 60 64 78 81 80
94 83 78 74 80 82 79 90 97 83 89 96 83 63 75 67 72 71 68 78 88 90 92 97 98 94 78 87 75 78 66 69 70 74 63 59 56 57 60 65 76 79 80 81
91 82 78 76 80 86 82 96 91 72 77 94 94 74 66 65 79 75 76 80 85 96 98 99 99 96 93 97 94 97 76 65 76 78 61 59 57 58 66 79 80 83 86 86
88 80 78 78 80 85 88 100 87 75 73 91 88 80 75 74 81 83 82 85 90 94 96 99 94 88 86 97 97 74 71 66 62 63 59 63 61 65 67 77 82 81 88 89
83 80 78 81 85 92 90 90 87 74 84 92 89 94 78 78 88 94 95 91 98 96 99 97 92 89 92 98 95 64 66 67 67 62 64 65 66 72 73 74 82 84 87 87
81 78 81 81 87 83 93 94 74 64 91 92 94 94 95 80 98 99 97 99 97 98 99 99 97 95 97 99 77 66 56 59 64 68 66 62 72 76 81 87 91 93 93 77
80 82 88 96 98 100 98 80 80 81 86 96 95 92 98 87 99 99 97 95 99 96 99 99 94 98 96 72 68 70 70 68 61 61 59 71 76 77 88 92 92 89 84 78
87 94 98 99 99 82 73 91 99 98 99 98 97 87 99 91 98 100 98 98 98 100 96 97 97 91 68 67 68 63 64 66 63 79 82 80 81 86 90 90 88 86 82 82
96 99 99 98 78 89 95 98 95 98 98 92 95 92 95 88 94 98 97 97 97 96 95 94 96 85 80 65 60 53 59 61 65 74 76 74 78 88 87 86 85 89 89 86
92 96 96 96 96 96 87 93 92 94 82 96 95 91 90 92 89 95 96 92 95 94 94 98 95 89 84 94 90 85 61 68 79 80 85 86 84 86 87 88 90 89 88 90
65 84 96 85 97 97 86 96 89 96 91 95 91 92 90 96 93 98 95 97 96 90 98 92 84 96 94 95 90 89 86 85 88 88 86 86 86 88 90 90 92 95 94 92
84 86 98 81 99 85 82 73 80 80 89 81 67 90 89 97 96 95 92 91 90 97 97 90 96 94 96 96 92 84 88 87 86 86 87 96 98 98 98 98 99 97 95 91
77 69 90 94 81 90 87 80 91 91 77 67 80 94 92 96 94 88 83 98 99 90 89 94 96 95 93 94 93 96 98 98 95 87 90 98 99 99 97 94 91 94 95 95
78 74 88 94 92 100 97 98 93 74 71 71 90 94 93 93 83 95 97 86 86 87 97 98 98 98 97 98 98 98 95 88 83 79 72 73 88 90 89 91 92 92 96 95
75 95 97 96 93 96 96 92 89 63 76 96 96 91 76 92 97 92 87 91 92 98 98 98 97 96 98 95 92 89 76 74 73 72 77 78 82 84 86 93 92 93 93 98

GFSNW_sfc_rhum_258.txt.gz
RH
83 81 76 76 79 84 70 51 90 72 64 70 86 98 38 47 32 31 26 24 27 28 30 34 37 36 31 34 32 33 35 42 45 35 32 26 35 46 52 92 87 81 94 79
86 83 76 74 80 80 56 59 63 69 73 97 99 75 57 45 34 31 30 30 27 28 32 51 36 35 38 38 34 36 34 57 51 39 37 26 35 36 42 49 81 90 92 90
83 89 79 74 82 81 54 68 100 94 83 54 43 46 54 61 38 30 29 30 29 33 37 35 50 39 44 41 34 49 44 39 38 42 39 34 35 34 38 48 64 52 62 56
80 87 84 74 80 83 61 82 90 62 97 92 52 35 38 39 47 34 28 34 30 33 72 51 42 36 42 41 42 41 42 49 39 35 33 34 37 39 37 37 35 51 48 43
76 83 88 76 78 83 80 96 93 62 46 60 61 50 51 34 34 41 40 36 32 32 39 36 64 39 36 38 41 41 44 59 41 63 33 36 44 38 37 38 39 40 37 36
68 80 86 86 77 81 94 67 60 57 61 60 69 66 46 36 38 40 29 34 36 37 30 29 29 30 32 33 38 42 55 66 64 59 34 39 64 40 35 36 35 35 37 34
67 72 82 89 76 75 87 63 49 80 86 60 63 51 45 42 37 43 36 34 35 34 36 37 38 39 40 41 41 38 48 48 64 77 42 83 39 28 28 32 32 29 30 28
64 66 77 87 87 78 70 65 51 75 88 54 54 51 48 40 41 41 43 37 29 38 38 59 93 81 79 75 47 46 39 46 89 82 62 34 29 30 36 37 35 29 29 28
62 66 82 85 89 88 74 68 53 50 98 65 42 48 44 53 55 57 51 52 44 42 48 75 82 68 57 66 63 44 41 45 65 92 78 60 32 29 27 32 47 29 30 31
65 64 66 76 86 93 82 83 67 53 99 43 43 51 59 38 45 57 52 56 55 45 87 98 84 59 30 47 51 79 71 81 85 78 77 41 24 30 30 57 41 32 29 30
66 66 70 72 89 88 94 91 70 60 90 59 54 45 47 42 44 75 52 58 65 71 90 79 83 72 48 39 30 47 56 74 80 71 83 68 25 33 42 35 34 30 31 33
68 68 70 82 85 84 92 98 70 59 72 63 59 52 54 32 33 38 53 49 48 51 74 75 72 68 63 43 61 33 45 39 63 52 46 35 30 29 30 29 29 32 35 38
68 67 69 73 85 90 97 95 78 74 90 67 60 55 54 49 43 42 76 51 45 51 42 72 68 70 41 52 40 39 35 33 40 45 31 35 33 30 29 28 34 33 39 44
68 68 68 74 77 91 98 97 77 67 76 99 67 53 59 52 48 46 48 50 59 53 45 90 87 68 41 44 41 39 30 39 38 38 30 33 30 30 32 31 34 42 45 46
67 69 68 76 86 90 97 94 74 57 57 82 81 61 55 55 51 52 54 54 56 60 95 97 80 47 59 54 49 44 33 35 43 45 29 34 28 29 29 34 36 40 46 44
68 68 69 72 84 85 98 100 88 63 46 89 92 59 60 61 54 54 58 54 52 67 91 79 52 54 55 86 54 32 28 30 28 30 30 29 29 36 35 34 39 47 46 44
68 68 71 77 87 98 99 89 89 66 45 87 83 81 67 60 58 63 64 61 86 83 98 92 58 52 70 83 55 28 31 34 34 33 32 39 37 34 34 39 46 56 48 48
68 68 73 75 80 96 94 63 78 64 67 64 78 88 90 66 88 96 67 87 82 85 87 75 67 63 71 83 44 31 27 28 34 37 34 30 29 35 44 45 45 44 43 44
70 72 77 94 100 100 92 79 71 58 62 77 59 67 91 85 92 90 91 72 94 67 86 71 64 67 79 49 38 33 36 35 32 31 33 34 41 44 50 48 43 35 40 49
73 91 100 99 99 85 84 93 99 100 88 72 62 40 77 66 72 87 85 75 79 87 66 63 78 52 39 35 35 33 35 35 34 39 44 42 43 45 48 49 35 36 42 48
100 100 100 97 75 82 100 98 97 96 94 55 53 52 74 57 68 82 68 78 69 72 68 68 63 54 49 36 36 36 34 35 35 35 34 35 38 42 50 48 50 52 53 57
94 99 94 92 93 96 95 94 93 64 59 46 56 59 55 60 52 65 71 62 59 62 66 80 65 58 42 47 43 37 34 36 37 38 46 43 37 43 47 46 49 57 64 87
99 98 94 81 96 94 89 94 64 71 56 46 54 77 61 64 55 70 72 76 69 60 82 66 50 52 53 49 56 50 38 39 41 47 49 52 53 51 52 58 79 80 79 80
91 68 93 87 92 83 48 37 43 52 53 53 59 66 62 72 82 72 82 61 70 82 78 64 63 54 66 64 62 59 58 47 43 54 60 70 83 98 100 100 100 99 100 100
58 51 78 76 55 53 53 51 56 53 52 57 60 65 59 68 86 66 68 86 78 60 62 62 73 66 67 62 60 58 57 68 62 67 82 98 96 98 100 100 99 99 97 99
52 53 70 62 73 91 86 70 68 50 60 60 53 70 71 78 61 67 73 58 59 57 62 77 76 73 67 64 63 64 63 61 65 62 60 66 95 98 94 84 91 95 100 90
62 88 79 66 69 95 83 60 57 52 60 77 57 74 54 56 60 55 46 55 53 77 85 83 74 80 78 76 74 70 62 56 54 56 56 61 62 64 57 59 68 80 90 96

GFSNW_sfc_rhum_264.txt.gz
RH
71 79 91 82 78 81 78 58 91 62 53 66 74 94 50 39 17 16 16 20 19 18 18 20 23 24 23 22 20 26 27 34 39 24 18 15 22 31 35 83 84 72 78 88
64 68 83 90 82 82 52 66 60 58 53 94 99 58 49 38 25 20 21 23 20 17 21 37 22 24 31 28 26 31 28 52 51 39 30 22 24 27 28 39 64 85 80 84
66 65 73 86 89 78 68 67 100 91 62 44 48 55 58 58 27 23 19 20 18 23 25 28 38 31 34 29 27 42 36 37 45 49 33 27 26 24 24 35 62 57 54 33
66 64 73 75 87 81 71 92 92 68 98 86 54 46 41 44 37 25 21 24 22 26 68 40 35 28 36 32 48 28 42 52 32 27 21 19 18 20 20 27 35 45 36 27
68 65 65 75 83 89 89 97 96 49 50 56 56 54 58 34 31 29 28 30 25 26 38 34 47 30 38 40 40 35 37 55 38 74 28 20 22 19 20 21 21 21 23 24
65 67 66 66 79 90 99 78 52 54 72 51 56 63 47 42 29 29 24 26 32 30 26 25 22 24 30 29 37 42 52 66 54 66 25 26 50 30 23 22 20 22 29 27
60 64 66 66 70 86 98 85 67 71 83 64 55 40 39 38 33 40 27 27 32 25 26 32 38 30 28 30 32 33 48 55 66 82 49 69 35 20 21 22 21 19 19 19
59 61 64 66 66 75 98 98 90 80 87 52 52 40 38 38 32 30 31 27 24 32 37 66 97 91 80 83 41 33 34 51 88 85 60 38 27 23 22 26 26 19 20 19
64 62 62 65 66 68 96 98 97 97 98 71 37 44 37 49 51 46 36 32 37 42 55 82 78 80 59 71 52 34 34 40 73 84 77 70 26 17 16 18 44 20 20 21
66 66 63 63 65 67 93 98 93 99 100 57 46 53 55 36 42 53 40 47 53 46 86 100 86 58 34 54 52 63 61 79 83 79 74 46 21 17 18 48 41 23 22 22
66 67 67 66 63 68 88 98 93 99 100 67 53 42 46 41 42 66 52 57 56 68 85 85 81 73 50 42 35 45 52 72 77 74 81 74 25 20 35 32 30 27 25 27
67 68 68 63 62 67 74 99 90 95 100 92 54 44 40 37 36 43 54 53 52 56 80 74 75 73 63 47 57 34 50 51 69 59 56 31 24 26 27 31 30 28 27 23
71 68 68 61 62 66 73 98 84 98 100 98 73 55 45 36 46 50 76 52 44 47 47 69 71 63 42 55 42 44 34 33 46 50 36 29 25 22 24 25 26 23 23 24
81 70 67 61 63 65 70 98 91 97 99 100 80 44 51 39 43 42 54 53 48 48 48 88 90 81 44 53 36 39 34 33 42 40 32 25 26 23 24 24 22 20 22 24
79 69 62 59 65 67 79 94 89 95 99 100 80 57 41 38 43 46 54 53 57 62 92 97 86 57 60 53 46 44 27 37 46 53 34 37 28 27 21 25 25 23 24 28
70 67 58 64 67 70 93 100 97 89 98 99 99 59 52 49 48 47 54 56 59 67 88 80 54 43 60 88 54 34 26 25 29 32 25 28 28 24 21 22 23 24 27 27
69 65 63 67 69 88 100 86 88 84 95 100 100 95 57 50 51 53 56 56 78 79 92 91 58 42 67 81 63 26 24 23 24 24 27 29 24 26 24 23 22 34 26 29
68 65 66 68 70 78 97 75 78 92 98 100 100 99 84 55 82 90 65 80 79 84 86 75 70 57 73 83 45 38 25 21 22 22 22 26 24 22 23 24 21 28 34 32
67 65 69 80 94 100 83 71 70 93 99 99 98 79 96 63 74 84 85 80 99 70 89 77 66 72 79 61 45 38 35 34 24 21 22 22 24 27 26 29 28 38 39 34
67 76 98 99 99 63 69 81 98 100 99 99 91 48 91 78 76 84 86 79 74 86 68 57 79 65 44 36 34 35 36 29 26 31 32 32 31 31 29 31 30 36 34 33
93 100 97 67 71 84 93 98 98 98 98 98 78 59 80 60 73 85 70 81 66 84 61 60 58 54 53 40 37 34 30 26 25 24 29 31 30 31 35 39 41 40 31 41
86 81 68 94 96 91 95 85 94 95 85 86 64 64 61 60 55 63 63 60 55 54 56 67 53 56 33 35 38 36 34 29 26 24 27 31 29 32 37 42 41 40 59 78
74 80 89 92 92 96 92 86 88 97 86 59 59 74 63 61 62 69 64 61 67 52 87 65 45 37 30 31 32 35 34 34 32 29 29 35 37 37 47 53 76 73 76 78
79 90 95 82 92 75 83 75 78 58 54 56 55 66 59 70 75 72 66 60 58 72 72 55 53 34 33 37 40 34 36 36 35 34 36 54 73 97 96 97 100 100 99 100
76 73 80 78 69 67 71 65 56 48 48 53 60 56 51 67 79 59 58 73 76 52 55 57 59 42 43 41 42 38 38 53 46 54 85 93 91 90 98 98 96 98 98 99
84 83 93 81 76 84 80 64 60 48 55 52 49 68 76 74 59 62 70 54 48 46 56 67 50 49 48 49 50 43 44 43 64 78 76 80 84 86 93 86 97 99 98 95
74 89 94 89 69 86 74 56 53 47 53 71 61 73 62 53 59 51 45 47 49 71 76 69 52 57 58 55 54 52 47 62 72 72 70 74 76 78 80 74 79 84 90 97